Darstellungsparameter: Aktuell verwendete Einstellungen:
Skalierung der Graphiken ... ?
xyx+y,   Skalierungsfaktor:      Skalierung: Modus: x, Faktor: 1
Darstellungszeitraum ... ?
Vom - - bis: - -   Zeitraum: 16.02.2019 - 16.02.2019
Min/Max/Avg-Anzeige ... ?
Zeige MMA aktuell
Zeige MMA Monat
Zeige MMA alles
Zeige --A aktuell
Zeige --A Monat
Zeige --A alles
Keine MMA-Anzeige
MMA:
Keine MMA-Graphiken
MMA-Basis: 16.02.2019 - 16.02.2019
Quicknavigation für Darstellung... ?
Tage:      1T, 2T, 3T, 5T -1T -2T -3T -5T +1T +2T +3T +5T
Wochen: 1W, 2W, 3W -1W -2W -3W +1W +2W +3W
Monate: 1M, 3M, 6M -1M -3M -6M +1M +3M +6M
Jahre:    1J, 3J, 5J, 10J -1J -3J -5J -10J +1J +3J +5J +10J
Nutze für die Darstellung ... ?
Originaldaten oder Mittelwerte auf ...
Stundenbasis Tagesbasis Wochenbasis
Monatsbasis Jahresbasis      Datenbasis: Original-Daten
Darstellen als:
Statistik (Auto) Statistik J:M      Darstellung:
Zur Graphik,    zurück zur Übersicht aller Sensoren.
 
Tabellarische Datenbersicht: ?
 
Sensor: Nr:Datum:Temp:Feuchte:Taupunkt:
Aussen-T/F 1 16-02-2019 00:00:00 0.8 C 93 % -0.2 C
2 16-02-2019 00:05:00 0.8 C 93 % -0.2 C
3 16-02-2019 00:10:00 0.7 C 92 % -0.45 C
4 16-02-2019 00:15:00 0.6 C 93 % -0.4 C
5 16-02-2019 00:20:00 0.5 C 92 % -0.65 C
6 16-02-2019 00:25:00 0.4 C 93 % -0.6 C
7 16-02-2019 00:30:00 0.3 C 93 % -0.7 C
8 16-02-2019 00:35:00 0.3 C 93 % -0.7 C
9 16-02-2019 00:40:00 0.3 C 93 % -0.7 C
10 16-02-2019 00:45:00 0.2 C 93 % -0.79 C
11 16-02-2019 00:50:00 0.1 C 93 % -0.89 C
12 16-02-2019 00:55:00 0 C 93 % -0.99 C
13 16-02-2019 01:00:00 -0.1 C 93 % -1.09 C
14 16-02-2019 01:05:00 0 C 94 % -0.85 C
15 16-02-2019 01:10:00 -0.1 C 94 % -0.95 C
16 16-02-2019 01:15:00 -0.2 C 93 % -1.19 C
17 16-02-2019 01:20:00 -0.2 C 94 % -1.05 C
18 16-02-2019 01:25:00 -0.2 C 94 % -1.05 C
19 16-02-2019 01:30:00 -0.1 C 94 % -0.95 C
20 16-02-2019 01:35:00 -0.1 C 94 % -0.95 C
21 16-02-2019 01:40:00 -0.1 C 94 % -0.95 C
22 16-02-2019 01:45:00 -0.2 C 94 % -1.05 C
23 16-02-2019 01:50:00 -0.2 C 94 % -1.05 C
24 16-02-2019 01:55:00 -0.3 C 94 % -1.15 C
25 16-02-2019 02:00:00 -0.3 C 94 % -1.15 C
Sensor: Nr:Datum:Temp:Feuchte:Taupunkt:
Aussen-T/F 26 16-02-2019 02:05:00 -0.3 C 94 % -1.15 C
27 16-02-2019 02:10:00 -0.3 C 95 % -1 C
28 16-02-2019 02:15:00 -0.2 C 95 % -0.9 C
29 16-02-2019 02:20:00 -0.3 C 94 % -1.15 C
30 16-02-2019 02:25:00 -0.4 C 94 % -1.25 C
31 16-02-2019 02:30:00 -0.5 C 94 % -1.34 C
32 16-02-2019 02:35:00 -0.7 C 94 % -1.54 C
33 16-02-2019 02:40:00 -0.7 C 94 % -1.54 C
34 16-02-2019 02:45:00 -0.7 C 95 % -1.4 C
35 16-02-2019 02:50:00 -0.7 C 95 % -1.4 C
36 16-02-2019 02:55:00 -0.7 C 95 % -1.4 C
37 16-02-2019 03:00:00 -0.8 C 94 % -1.64 C
38 16-02-2019 03:05:00 -0.8 C 94 % -1.64 C
39 16-02-2019 03:10:00 -0.9 C 94 % -1.74 C
40 16-02-2019 03:15:00 -0.9 C 95 % -1.6 C
41 16-02-2019 03:20:00 -0.9 C 95 % -1.6 C
42 16-02-2019 03:25:00 -0.8 C 95 % -1.5 C
43 16-02-2019 03:30:00 -0.6 C 95 % -1.3 C
44 16-02-2019 03:35:00 -0.6 C 95 % -1.3 C
45 16-02-2019 03:40:00 -0.7 C 95 % -1.4 C
46 16-02-2019 03:45:00 -0.7 C 95 % -1.4 C
47 16-02-2019 03:50:00 -0.7 C 95 % -1.4 C
48 16-02-2019 03:55:00 -0.7 C 95 % -1.4 C
49 16-02-2019 04:00:00 -0.8 C 95 % -1.5 C
50 16-02-2019 04:05:00 -0.6 C 95 % -1.3 C
Sensor: Nr:Datum:Temp:Feuchte:Taupunkt:
Aussen-T/F 51 16-02-2019 04:10:00 -0.6 C 95 % -1.3 C
52 16-02-2019 04:15:00 -0.7 C 95 % -1.4 C
53 16-02-2019 04:20:00 -0.8 C 95 % -1.5 C
54 16-02-2019 04:25:00 -0.9 C 95 % -1.6 C
55 16-02-2019 04:30:00 -1 C 95 % -1.7 C
56 16-02-2019 04:35:00 -1 C 95 % -1.7 C
57 16-02-2019 04:40:00 -1.1 C 95 % -1.8 C
58 16-02-2019 04:45:00 -1.2 C 95 % -1.9 C
59 16-02-2019 04:50:00 -1.2 C 95 % -1.9 C
60 16-02-2019 04:55:00 -1.2 C 95 % -1.9 C
61 16-02-2019 05:00:00 -1.1 C 95 % -1.8 C
62 16-02-2019 05:05:00 -0.9 C 96 % -1.46 C
63 16-02-2019 05:10:00 -0.8 C 95 % -1.5 C
64 16-02-2019 05:15:00 -0.9 C 95 % -1.6 C
65 16-02-2019 05:20:00 -1.2 C 95 % -1.9 C
66 16-02-2019 05:25:00 -1.3 C 95 % -2 C
67 16-02-2019 05:30:00 -1.4 C 95 % -2.1 C
68 16-02-2019 05:35:00 -1.5 C 95 % -2.19 C
69 16-02-2019 05:40:00 -1.4 C 95 % -2.1 C
70 16-02-2019 05:45:00 -1.1 C 96 % -1.66 C
71 16-02-2019 05:50:00 -0.9 C 96 % -1.46 C
72 16-02-2019 05:55:00 -0.9 C 96 % -1.46 C
73 16-02-2019 06:00:00 -1.1 C 95 % -1.8 C
74 16-02-2019 06:05:00 -1.3 C 95 % -2 C
75 16-02-2019 06:10:00 -1.4 C 95 % -2.1 C
Sensor: Nr:Datum:Temp:Feuchte:Taupunkt:
Aussen-T/F 76 16-02-2019 06:15:00 -1.3 C 95 % -2 C
77 16-02-2019 06:20:00 -1.2 C 96 % -1.75 C
78 16-02-2019 06:25:00 -1.2 C 95 % -1.9 C
79 16-02-2019 06:30:00 -1.3 C 95 % -2 C
80 16-02-2019 06:35:00 -1.2 C 95 % -1.9 C
81 16-02-2019 06:40:00 -1.2 C 96 % -1.75 C
82 16-02-2019 06:45:00 -1.2 C 96 % -1.75 C
83 16-02-2019 06:50:00 -1.1 C 96 % -1.66 C
84 16-02-2019 06:55:00 -1 C 96 % -1.56 C
85 16-02-2019 07:00:00 -1.1 C 95 % -1.8 C
86 16-02-2019 07:05:00 -1.2 C 95 % -1.9 C
87 16-02-2019 07:10:00 -1.4 C 95 % -2.1 C
88 16-02-2019 07:15:00 -1.6 C 95 % -2.29 C
89 16-02-2019 07:20:00 -1.7 C 95 % -2.39 C
90 16-02-2019 07:25:00 -1.7 C 95 % -2.39 C
91 16-02-2019 07:30:00 -1.7 C 95 % -2.39 C
92 16-02-2019 07:35:00 -1.7 C 95 % -2.39 C
93 16-02-2019 07:40:00 -1.8 C 95 % -2.49 C
94 16-02-2019 07:45:00 -1.9 C 95 % -2.59 C
95 16-02-2019 07:50:00 -1.9 C 95 % -2.59 C
96 16-02-2019 07:55:00 -2 C 95 % -2.69 C
97 16-02-2019 08:00:00 -2 C 95 % -2.69 C
98 16-02-2019 08:05:00 -1.9 C 96 % -2.45 C
99 16-02-2019 08:10:00 -1.8 C 96 % -2.35 C
100 16-02-2019 08:15:00 -1.8 C 96 % -2.35 C
Sensor: Nr:Datum:Temp:Feuchte:Taupunkt:
Aussen-T/F 101 16-02-2019 08:20:00 -1.8 C 95 % -2.49 C
102 16-02-2019 08:25:00 -1.8 C 95 % -2.49 C
103 16-02-2019 08:30:00 -1.8 C 95 % -2.49 C
104 16-02-2019 08:35:00 -1.8 C 95 % -2.49 C
105 16-02-2019 08:40:00 -1.8 C 95 % -2.49 C
106 16-02-2019 08:45:00 -1.7 C 96 % -2.25 C
107 16-02-2019 08:50:00 -1.6 C 96 % -2.15 C
108 16-02-2019 08:55:00 -1.6 C 96 % -2.15 C
109 16-02-2019 09:00:00 -1.4 C 96 % -1.95 C
110 16-02-2019 09:05:00 -1.3 C 96 % -1.85 C
111 16-02-2019 09:10:00 -1.2 C 96 % -1.75 C
112 16-02-2019 09:15:00 -1.2 C 96 % -1.75 C
113 16-02-2019 09:20:00 -1.2 C 96 % -1.75 C
114 16-02-2019 09:25:00 -1.2 C 96 % -1.75 C
115 16-02-2019 09:30:00 -1.2 C 96 % -1.75 C
116 16-02-2019 09:35:00 -1.1 C 96 % -1.66 C
117 16-02-2019 09:40:00 -0.9 C 96 % -1.46 C
118 16-02-2019 09:45:00 -0.8 C 96 % -1.36 C
119 16-02-2019 09:50:00 -0.8 C 96 % -1.36 C
120 16-02-2019 09:55:00 -0.8 C 96 % -1.36 C
121 16-02-2019 10:00:00 -0.8 C 96 % -1.36 C
122 16-02-2019 10:05:00 -0.8 C 96 % -1.36 C
123 16-02-2019 10:10:00 -0.7 C 96 % -1.26 C
124 16-02-2019 10:15:00 -0.6 C 96 % -1.16 C
125 16-02-2019 10:20:00 -0.6 C 96 % -1.16 C
Sensor: Nr:Datum:Temp:Feuchte:Taupunkt:
Aussen-T/F 126 16-02-2019 10:25:00 -0.5 C 96 % -1.06 C
127 16-02-2019 10:30:00 -0.3 C 96 % -0.86 C
128 16-02-2019 10:35:00 0.1 C 97 % -0.32 C
129 16-02-2019 10:40:00 0.2 C 97 % -0.22 C
130 16-02-2019 10:45:00 0.3 C 97 % -0.12 C
131 16-02-2019 10:50:00 0.4 C 97 % -0.02 C
132 16-02-2019 10:55:00 0.6 C 97 % 0.18 C
133 16-02-2019 11:00:00 0.7 C 97 % 0.28 C
134 16-02-2019 11:05:00 0.9 C 97 % 0.48 C
135 16-02-2019 11:10:00 1.3 C 97 % 0.88 C
136 16-02-2019 11:15:00 1.6 C 97 % 1.18 C
137 16-02-2019 11:20:00 1.9 C 97 % 1.48 C
138 16-02-2019 11:25:00 2.1 C 97 % 1.67 C
139 16-02-2019 11:30:00 2.3 C 97 % 1.87 C
140 16-02-2019 11:35:00 2.6 C 97 % 2.17 C
141 16-02-2019 11:40:00 2.8 C 97 % 2.37 C
142 16-02-2019 11:45:00 3.1 C 97 % 2.67 C
143 16-02-2019 11:50:00 3.3 C 97 % 2.87 C
144 16-02-2019 11:55:00 3.5 C 97 % 3.07 C
145 16-02-2019 12:00:00 3.7 C 97 % 3.27 C
146 16-02-2019 12:05:00 3.8 C 97 % 3.37 C
147 16-02-2019 12:10:00 3.9 C 97 % 3.47 C
148 16-02-2019 12:15:00 4.2 C 97 % 3.77 C
149 16-02-2019 12:20:00 4.4 C 97 % 3.97 C
150 16-02-2019 12:25:00 4.8 C 97 % 4.37 C
Sensor: Nr:Datum:Temp:Feuchte:Taupunkt:
Aussen-T/F 151 16-02-2019 12:30:00 5.1 C 97 % 4.66 C
152 16-02-2019 12:35:00 5.4 C 97 % 4.96 C
153 16-02-2019 12:40:00 5.8 C 97 % 5.36 C
154 16-02-2019 12:45:00 6 C 97 % 5.56 C
155 16-02-2019 12:50:00 6.2 C 97 % 5.76 C
156 16-02-2019 12:55:00 6.3 C 96 % 5.71 C
157 16-02-2019 13:00:00 6.4 C 94 % 5.51 C
158 16-02-2019 13:05:00 6.5 C 93 % 5.45 C
159 16-02-2019 13:10:00 6.7 C 93 % 5.65 C
160 16-02-2019 13:15:00 6.9 C 93 % 5.85 C
161 16-02-2019 13:20:00 7.2 C 92 % 5.99 C
162 16-02-2019 13:25:00 7.6 C 91 % 6.23 C
163 16-02-2019 13:30:00 7.9 C 90 % 6.36 C
164 16-02-2019 13:35:00 8.3 C 89 % 6.6 C
165 16-02-2019 13:40:00 8.7 C 89 % 6.99 C
166 16-02-2019 13:45:00 9 C 87 % 6.96 C
167 16-02-2019 13:50:00 9.3 C 85 % 6.91 C
168 16-02-2019 13:55:00 9.8 C 84 % 7.23 C
169 16-02-2019 14:00:00 10.1 C 82 % 7.17 C
170 16-02-2019 14:05:00 10.4 C 80 % 7.1 C
171 16-02-2019 14:10:00 10.6 C 79 % 7.11 C
172 16-02-2019 14:15:00 10.7 C 79 % 7.21 C
173 16-02-2019 14:20:00 10.7 C 78 % 7.03 C
174 16-02-2019 14:25:00 10.7 C 77 % 6.84 C
175 16-02-2019 14:30:00 10.7 C 77 % 6.84 C
Sensor: Nr:Datum:Temp:Feuchte:Taupunkt:
Aussen-T/F 176 16-02-2019 14:35:00 10.7 C 76 % 6.65 C
177 16-02-2019 14:40:00 10.7 C 76 % 6.65 C
178 16-02-2019 14:45:00 10.7 C 75 % 6.46 C
179 16-02-2019 14:50:00 10.9 C 73 % 6.26 C
180 16-02-2019 14:55:00 11.1 C 73 % 6.45 C
181 16-02-2019 15:00:00 11.3 C 72 % 6.44 C
182 16-02-2019 15:05:00 11.4 C 72 % 6.54 C
183 16-02-2019 15:10:00 11.6 C 71 % 6.53 C
184 16-02-2019 15:15:00 11.6 C 71 % 6.53 C
185 16-02-2019 15:20:00 11.7 C 72 % 6.83 C
186 16-02-2019 15:25:00 11.7 C 70 % 6.42 C
187 16-02-2019 15:30:00 11.8 C 70 % 6.51 C
188 16-02-2019 15:35:00 11.8 C 69 % 6.31 C
189 16-02-2019 15:40:00 11.9 C 68 % 6.19 C
190 16-02-2019 15:45:00 12 C 68 % 6.29 C
191 16-02-2019 15:50:00 12.1 C 68 % 6.38 C
192 16-02-2019 15:55:00 12.2 C 67 % 6.26 C
193 16-02-2019 16:00:00 12.3 C 67 % 6.36 C
194 16-02-2019 16:05:00 12.3 C 67 % 6.36 C
195 16-02-2019 16:10:00 12.2 C 67 % 6.26 C
196 16-02-2019 16:15:00 12.1 C 67 % 6.17 C
197 16-02-2019 16:20:00 11.9 C 67 % 5.98 C
198 16-02-2019 16:25:00 11.8 C 67 % 5.88 C
199 16-02-2019 16:30:00 11.8 C 67 % 5.88 C
200 16-02-2019 16:35:00 11.7 C 68 % 6 C
Sensor: Nr:Datum:Temp:Feuchte:Taupunkt:
Aussen-T/F 201 16-02-2019 16:40:00 11.7 C 67 % 5.78 C
202 16-02-2019 16:45:00 11.6 C 67 % 5.69 C
203 16-02-2019 16:50:00 11.6 C 68 % 5.9 C
204 16-02-2019 16:55:00 11.6 C 68 % 5.9 C
205 16-02-2019 17:00:00 11.5 C 69 % 6.02 C
206 16-02-2019 17:05:00 11.4 C 68 % 5.71 C
207 16-02-2019 17:10:00 11.3 C 69 % 5.83 C
208 16-02-2019 17:15:00 11.2 C 69 % 5.73 C
209 16-02-2019 17:20:00 11 C 69 % 5.54 C
210 16-02-2019 17:25:00 10.8 C 70 % 5.56 C
211 16-02-2019 17:30:00 10.7 C 70 % 5.46 C
212 16-02-2019 17:35:00 10.4 C 70 % 5.17 C
213 16-02-2019 17:40:00 10.3 C 71 % 5.28 C
214 16-02-2019 17:45:00 10.1 C 71 % 5.09 C
215 16-02-2019 17:50:00 9.9 C 72 % 5.1 C
216 16-02-2019 17:55:00 9.7 C 72 % 4.9 C
217 16-02-2019 18:00:00 9.5 C 73 % 4.91 C
218 16-02-2019 18:05:00 9.3 C 74 % 4.91 C
219 16-02-2019 18:10:00 9.2 C 75 % 5.01 C
220 16-02-2019 18:15:00 9 C 75 % 4.81 C
221 16-02-2019 18:20:00 8.9 C 76 % 4.91 C
222 16-02-2019 18:25:00 8.8 C 76 % 4.81 C
223 16-02-2019 18:30:00 8.7 C 77 % 4.9 C
224 16-02-2019 18:35:00 8.5 C 78 % 4.89 C
225 16-02-2019 18:40:00 8.4 C 78 % 4.79 C
Sensor: Nr:Datum:Temp:Feuchte:Taupunkt:
Aussen-T/F 226 16-02-2019 18:45:00 8.3 C 78 % 4.7 C
227 16-02-2019 18:50:00 8.2 C 78 % 4.6 C
228 16-02-2019 18:55:00 8.1 C 79 % 4.68 C
229 16-02-2019 19:00:00 8.1 C 79 % 4.68 C
230 16-02-2019 19:05:00 8 C 79 % 4.59 C
231 16-02-2019 19:10:00 7.8 C 80 % 4.57 C
232 16-02-2019 19:15:00 7.6 C 80 % 4.38 C
233 16-02-2019 19:20:00 7.4 C 81 % 4.36 C
234 16-02-2019 19:25:00 7.3 C 81 % 4.26 C
235 16-02-2019 19:30:00 7.2 C 82 % 4.34 C
236 16-02-2019 19:35:00 7.1 C 83 % 4.41 C
237 16-02-2019 19:40:00 7.1 C 83 % 4.41 C
238 16-02-2019 19:45:00 6.9 C 82 % 4.05 C
239 16-02-2019 19:50:00 6.7 C 81 % 3.68 C
240 16-02-2019 19:55:00 6.3 C 82 % 3.46 C
241 16-02-2019 20:00:00 6.2 C 83 % 3.53 C
242 16-02-2019 20:05:00 6.1 C 83 % 3.44 C
243 16-02-2019 20:10:00 6 C 83 % 3.34 C
244 16-02-2019 20:15:00 5.8 C 83 % 3.14 C
245 16-02-2019 20:20:00 5.6 C 84 % 3.12 C
246 16-02-2019 20:25:00 5.4 C 85 % 3.09 C
247 16-02-2019 20:30:00 5.4 C 85 % 3.09 C
248 16-02-2019 20:35:00 5.3 C 84 % 2.82 C
249 16-02-2019 20:40:00 5.1 C 84 % 2.63 C
250 16-02-2019 20:45:00 4.8 C 85 % 2.5 C
Sensor: Nr:Datum:Temp:Feuchte:Taupunkt:
Aussen-T/F 251 16-02-2019 20:50:00 4.7 C 86 % 2.56 C
252 16-02-2019 20:55:00 4.6 C 86 % 2.47 C
253 16-02-2019 21:00:00 4.3 C 86 % 2.17 C
254 16-02-2019 21:05:00 4.2 C 87 % 2.23 C
255 16-02-2019 21:10:00 3.9 C 87 % 1.94 C
256 16-02-2019 21:15:00 3.8 C 88 % 2 C
257 16-02-2019 21:20:00 3.7 C 89 % 2.06 C
258 16-02-2019 21:25:00 3.8 C 90 % 2.31 C
259 16-02-2019 21:30:00 3.7 C 89 % 2.06 C
260 16-02-2019 21:35:00 3.7 C 89 % 2.06 C
261 16-02-2019 21:40:00 3.6 C 89 % 1.96 C
262 16-02-2019 21:45:00 3.6 C 90 % 2.12 C
263 16-02-2019 21:50:00 3.5 C 90 % 2.02 C
264 16-02-2019 21:55:00 3.3 C 89 % 1.67 C
265 16-02-2019 22:00:00 3.2 C 90 % 1.72 C
266 16-02-2019 22:05:00 3.2 C 90 % 1.72 C
267 16-02-2019 22:10:00 2.9 C 90 % 1.43 C
268 16-02-2019 22:15:00 2.8 C 90 % 1.33 C
269 16-02-2019 22:20:00 2.6 C 90 % 1.13 C
270 16-02-2019 22:25:00 2.7 C 92 % 1.53 C
271 16-02-2019 22:30:00 2.8 C 92 % 1.63 C
272 16-02-2019 22:35:00 2.7 C 92 % 1.53 C
273 16-02-2019 22:40:00 2.8 C 93 % 1.78 C
274 16-02-2019 22:45:00 2.8 C 92 % 1.63 C
275 16-02-2019 22:50:00 2.7 C 92 % 1.53 C
Sensor: Nr:Datum:Temp:Feuchte:Taupunkt:
Aussen-T/F 276 16-02-2019 22:55:00 2.4 C 92 % 1.24 C
277 16-02-2019 23:00:00 2.3 C 92 % 1.14 C
278 16-02-2019 23:05:00 2.1 C 91 % 0.79 C
279 16-02-2019 23:10:00 2 C 92 % 0.84 C
280 16-02-2019 23:15:00 2.1 C 93 % 1.09 C
281 16-02-2019 23:20:00 2 C 93 % 0.99 C
282 16-02-2019 23:25:00 1.9 C 93 % 0.89 C
283 16-02-2019 23:30:00 1.8 C 93 % 0.79 C
284 16-02-2019 23:35:00 1.8 C 93 % 0.79 C
285 16-02-2019 23:40:00 1.9 C 94 % 1.04 C
286 16-02-2019 23:45:00 1.9 C 94 % 1.04 C
287 16-02-2019 23:50:00 1.8 C 94 % 0.94 C
288 16-02-2019 23:55:00 1.9 C 94 % 1.04 C

Legende:
   Min
   Max


Maximal/Minimal-Werte vom 16.02.2019 - 16.02.2019

Sensor Min Max Avg
Temp
(Aussen-T/F)
-2 °C
16-02-2019  07:55:00
12.3 °C
16-02-2019  16:00:00
3.38 °C
Feuchte
(Aussen-T/F)
67 %
16-02-2019  15:55:00
97 %
16-02-2019  10:35:00
88.63 %
Taupunkt
(Aussen-T/F)
-2.69 C
16-02-2019  07:55:00
7.23 C
16-02-2019  13:55:00
1.54 C

Die Daten stammen von einer Davis Vantage Pro 2 Wetter-Station und werden unter Linux mit der Software wview2wettercgi und aufbereitet. Alle Angaben erfolgen ohne Gewähr für ihre Vollständigkeit oder Richtigkeit.
Kontakt: Rainer Krienke krienke@uni-koblenz.de . Meine Webseiten an der Uni Koblenz oder privat.
Version: $Revision: 0.78 $